period_start,C,m1,H,J0,J1,J2,J3,J4,J5,JA,JB,JC,JD,JJ,JK,JN,#
2017-01-18 00:01:08,0.13,0.94,0.00,20.09,24.57,28.05,14.90,49.01,1026.80,2039.50,3217.72,2883.70,3249.38,600.15,608.16,29.37,0000 0000 0000 0000 000000
2017-01-18 00:06:09,0.07,0.95,0.00,20.07,24.55,28.07,14.87,49.02,1026.87,2039.82,3216.46,2882.80,3248.22,599.92,608.09,29.42,0000 0000 0000 0000 000000
2017-01-18 00:11:10,0.06,0.95,0.00,20.04,24.53,28.05,14.90,49.07,1026.87,2039.94,3215.32,2881.95,3247.25,600.22,608.41,29.47,0000 0000 0000 0000 000000
2017-01-18 00:16:11,0.06,0.95,0.00,20.00,24.51,27.98,14.85,49.20,1026.54,2039.98,3214.22,2881.08,3246.28,599.96,607.97,29.52,0000 0000 0000 0000 000000
2017-01-18 00:21:13,0.06,0.96,0.00,19.97,24.49,28.00,14.85,49.18,1026.43,2039.99,3213.14,2880.33,3245.42,599.60,607.55,29.57,0000 0000 0000 0000 000000
2017-01-18 00:26:14,0.06,0.96,0.00,19.93,24.47,27.93,14.85,49.42,1026.39,2039.99,3211.89,2879.48,3244.38,599.81,607.93,29.62,0000 0000 0000 0000 000000
2017-01-18 00:31:15,0.05,0.96,0.00,19.91,24.44,27.91,14.90,49.40,1026.38,2039.99,3210.66,2878.70,3243.36,600.21,608.33,29.67,0000 0000 0000 0000 000000
2017-01-18 00:36:16,0.08,0.97,0.00,19.88,24.42,27.90,14.92,49.70,1026.38,2040.00,3209.39,2877.60,3241.89,600.21,608.45,29.72,0000 0000 0000 0000 000000
2017-01-18 00:41:17,0.06,0.97,0.00,19.84,24.39,27.91,14.98,49.51,1026.38,2040.00,3208.00,2876.43,3240.74,600.22,608.46,29.77,0000 0000 0000 0000 000000
2017-01-18 00:46:18,0.06,0.97,0.00,19.80,24.36,27.87,14.91,49.53,1026.41,2040.01,3206.88,2875.68,3239.77,600.27,608.64,29.82,0000 0000 0000 0000 000000
2017-01-18 00:51:19,0.05,0.98,0.00,19.78,24.33,27.80,14.88,49.60,1026.38,2040.09,3205.76,2874.84,3238.81,599.78,608.10,29.87,0000 0000 0000 0000 000000
2017-01-18 00:56:21,0.11,0.98,0.00,19.76,24.31,27.78,14.85,49.67,1026.38,2040.66,3204.77,2874.03,3237.89,600.04,608.44,29.92,0000 0000 0000 0000 000000
2017-01-18 01:01:22,0.08,0.99,0.00,19.73,24.28,27.75,14.98,49.56,1026.38,2040.93,3203.65,2873.19,3236.95,600.47,608.96,29.97,0000 0000 0000 0000 000000
2017-01-18 01:06:23,0.07,0.99,0.00,19.69,24.25,27.75,14.94,49.50,1026.35,2040.97,3202.47,2872.28,3235.78,600.41,608.95,30.02,0000 0000 0000 0000 000000
2017-01-18 01:11:24,0.06,0.99,0.00,19.66,24.22,27.67,14.90,49.77,1026.00,2040.99,3201.35,2871.42,3234.73,599.98,608.22,30.07,0000 0000 0000 0000 000000
2017-01-18 01:16:25,0.06,1.00,0.00,19.62,24.19,27.69,14.92,49.43,1026.30,2040.99,3200.02,2870.43,3233.72,600.02,608.74,30.12,0000 0000 0000 0000 000000
2017-01-18 01:21:27,0.07,1.00,0.00,19.60,24.16,27.63,14.90,49.48,1026.33,2040.99,3198.84,2869.20,3232.41,600.17,608.86,30.17,0000 0000 0000 0000 000000
2017-01-18 01:26:28,0.07,1.00,0.00,19.57,24.13,27.61,14.82,49.34,1026.34,2041.00,3197.58,2868.22,3231.23,599.90,608.74,30.22,0000 0000 0000 0000 000000
2017-01-18 01:31:29,0.06,1.01,0.00,19.56,24.11,27.58,14.91,49.16,1026.39,2041.03,3196.50,2867.45,3230.37,599.90,608.79,30.27,0000 0000 0000 0000 000000
2017-01-18 01:36:30,0.09,1.01,0.00,19.55,24.08,27.52,14.89,49.47,1026.40,2041.31,3195.31,2866.66,3229.29,599.99,608.78,30.32,0000 0000 0000 0000 000000
2017-01-18 01:41:32,0.08,1.02,0.00,19.56,24.05,27.50,14.90,49.14,1026.51,2041.69,3194.27,2865.88,3228.39,599.96,608.87,30.37,0000 0000 0000 0000 000000
2017-01-18 01:46:33,0.07,1.02,0.00,19.54,24.02,27.48,14.86,49.33,1026.38,2041.92,3193.22,2865.04,3227.52,599.63,608.51,30.42,0000 0000 0000 0000 000000
2017-01-18 01:51:35,0.06,1.02,0.00,19.53,24.00,27.42,14.94,49.17,1026.37,2041.97,3192.27,2864.27,3226.66,599.91,608.73,30.47,0000 0000 0000 0000 000000
2017-01-18 01:56:36,0.06,1.03,0.00,19.55,23.97,27.40,14.86,49.34,1026.11,2041.99,3191.00,2863.48,3225.60,600.22,608.81,30.52,0000 0000 0000 0000 000000
2017-01-18 02:01:37,0.07,1.03,0.00,19.57,23.95,27.37,14.87,49.61,1025.90,2041.99,3189.64,2862.39,3224.43,599.89,608.40,30.57,0000 0000 0000 0000 000000
2017-01-18 02:06:39,0.07,1.03,0.00,19.53,23.93,27.34,14.90,49.67,1025.58,2042.00,3188.31,2861.34,3223.09,600.02,608.43,30.62,0000 0000 0000 0000 000000
2017-01-18 02:11:40,0.07,1.04,0.00,19.52,23.91,27.29,14.93,49.81,1025.71,2042.00,3186.92,2860.22,3221.81,600.29,608.80,30.67,0000 0000 0000 0000 000000
2017-01-18 02:16:42,0.08,1.04,0.00,19.49,23.89,27.29,14.88,49.83,1025.78,2042.02,3185.42,2859.03,3220.47,599.97,608.58,30.72,0000 0000 0000 0000 000000
2017-01-18 02:21:43,0.09,1.05,0.00,19.48,23.87,27.27,14.85,49.67,1025.69,2042.06,3183.95,2857.87,3219.10,599.79,608.15,30.77,0000 0000 0000 0000 000000
2017-01-18 02:26:45,0.10,1.05,0.00,19.46,23.85,27.22,14.90,49.58,1025.40,2042.22,3182.34,2856.71,3217.75,600.35,608.82,30.82,0000 0000 0000 0000 000000
2017-01-18 02:31:46,0.15,1.06,0.00,19.44,23.83,27.23,14.93,50.15,1024.89,2042.71,3180.54,2855.31,3216.16,600.29,608.43,30.87,0000 0000 0000 0000 000000
2017-01-18 02:36:47,0.14,1.07,0.00,19.41,23.81,27.19,14.90,50.56,1024.43,2042.93,3178.30,2853.56,3214.12,600.12,608.12,30.92,0000 0000 0000 0000 000000
2017-01-18 02:41:48,0.14,1.07,0.00,19.36,23.79,27.20,14.95,50.65,1024.39,2042.97,3176.25,2851.57,3211.76,600.22,608.39,30.97,0000 0000 0000 0000 000000
2017-01-18 02:46:49,0.17,1.08,0.00,19.31,23.76,27.22,14.98,50.54,1024.42,2042.99,3173.71,2849.16,3209.01,600.42,608.62,31.02,0000 0000 0000 0000 000000
2017-01-18 02:51:50,0.11,1.09,0.00,19.24,23.74,27.24,14.87,50.52,1024.44,2042.99,3171.65,2847.03,3206.62,600.14,608.34,31.07,0000 0000 0000 0000 000000
2017-01-18 02:56:52,0.09,1.09,0.00,19.16,23.71,27.23,14.93,50.40,1024.78,2042.99,3170.08,2845.63,3205.02,600.32,609.07,31.12,0000 0000 0000 0000 000000
2017-01-18 03:01:53,0.10,1.10,0.00,19.11,23.69,27.22,14.92,50.29,1024.92,2043.00,3168.47,2844.44,3203.56,599.98,608.87,31.17,0000 0000 0000 0000 000000
2017-01-18 03:06:55,0.12,1.11,0.00,19.03,23.66,27.21,15.00,50.25,1025.17,2043.01,3166.42,2842.45,3201.35,600.19,609.09,31.22,0000 0000 0000 0000 000000
2017-01-18 03:11:56,0.08,1.11,0.00,18.96,23.63,27.17,14.95,49.93,1025.55,2043.07,3164.93,2841.39,3200.02,599.78,609.47,31.27,0000 0000 0000 0000 000000
2017-01-18 03:16:58,0.11,1.11,0.00,18.90,23.59,27.16,14.95,49.94,1025.83,2043.35,3163.58,2840.34,3198.82,600.12,610.05,31.32,0000 0000 0000 0000 000000
2017-01-18 03:21:59,0.11,1.12,0.00,18.85,23.56,27.13,14.84,49.75,1025.90,2043.76,3162.36,2839.30,3197.75,599.56,609.49,31.37,0000 0000 0000 0000 000000
2017-01-18 03:27:00,0.07,1.12,0.00,18.79,23.52,27.07,14.89,49.71,1025.84,2043.96,3160.98,2838.37,3196.66,599.86,609.97,31.42,0000 0000 0000 0000 000000
2017-01-18 03:32:02,0.06,1.13,0.00,18.74,23.48,27.03,14.95,49.99,1025.61,2043.99,3159.75,2837.37,3195.53,600.20,610.29,31.47,0000 0000 0000 0000 000000
2017-01-18 03:37:03,0.06,1.13,0.00,18.69,23.44,26.99,14.99,50.11,1025.43,2043.99,3158.55,2836.47,3194.45,600.29,610.34,31.52,0000 0000 0000 0000 000000
2017-01-18 03:42:04,0.07,1.14,0.00,18.66,23.40,26.93,14.97,50.17,1025.12,2044.00,3157.23,2835.45,3193.34,600.03,609.93,31.57,0000 0000 0000 0000 000000
2017-01-18 03:47:05,0.08,1.14,0.00,18.63,23.36,26.90,14.96,50.41,1024.92,2044.08,3155.82,2834.44,3192.14,599.64,609.51,31.62,0000 0000 0000 0000 000000
2017-01-18 03:52:06,0.11,1.14,0.00,18.58,23.32,26.85,15.00,50.52,1024.98,2044.34,3154.46,2833.41,3190.89,600.33,610.31,31.68,0000 0000 0000 0000 000000
2017-01-18 03:57:07,0.14,1.15,0.00,18.52,23.28,26.82,15.01,50.71,1025.24,2044.88,3152.85,2832.16,3189.25,600.21,610.49,31.73,0000 0000 0000 0000 000000
2017-01-18 04:02:09,0.07,1.16,0.00,18.49,23.23,26.75,14.92,50.43,1025.43,2044.98,3151.50,2830.90,3187.86,599.74,610.17,31.78,0000 0000 0000 0000 000000
2017-01-18 04:07:10,0.06,1.16,0.00,18.44,23.19,26.69,14.96,50.17,1025.81,2044.99,3150.21,2829.98,3186.76,600.27,611.10,31.83,0000 0000 0000 0000 000000
2017-01-18 04:12:11,0.07,1.16,0.00,18.41,23.14,26.64,14.97,49.92,1025.93,2045.00,3148.92,2829.01,3185.54,600.24,611.06,31.88,0000 0000 0000 0000 000000
2017-01-18 04:17:12,0.08,1.17,0.00,18.37,23.10,26.57,14.91,49.58,1026.34,2045.07,3147.63,2828.06,3184.48,600.06,611.41,31.93,0000 0000 0000 0000 000000
2017-01-18 04:22:13,0.08,1.17,0.00,18.36,23.05,26.55,15.02,49.71,1026.38,2045.25,3146.39,2827.13,3183.42,600.16,611.54,31.98,0000 0000 0000 0000 000000
2017-01-18 04:27:15,0.13,1.18,0.00,18.32,23.00,26.52,15.06,49.98,1025.95,2045.76,3144.87,2826.02,3182.11,599.94,610.93,32.03,0000 0000 0000 0000 000000
2017-01-18 04:32:16,0.08,1.18,0.00,18.29,22.96,26.44,14.99,50.23,1025.89,2045.98,3143.47,2824.98,3180.91,599.98,611.03,32.08,0000 0000 0000 0000 000000
2017-01-18 04:37:17,0.07,1.19,0.00,18.26,22.91,26.38,14.99,49.80,1026.34,2045.99,3142.13,2824.01,3179.77,600.15,611.66,32.13,0000 0000 0000 0000 000000
2017-01-18 04:42:18,0.08,1.19,0.00,18.24,22.87,26.34,15.00,49.51,1026.47,2046.00,3140.78,2823.05,3178.61,600.02,611.73,32.18,0000 0000 0000 0000 000000
2017-01-18 04:47:20,0.07,1.19,0.00,18.25,22.83,26.30,15.00,49.38,1026.44,2046.08,3139.45,2822.12,3177.61,599.85,611.48,32.23,0000 0000 0000 0000 000000
2017-01-18 04:52:21,0.11,1.20,0.00,18.25,22.79,26.27,15.00,49.33,1026.40,2046.56,3138.26,2821.25,3176.71,599.89,611.57,32.28,0000 0000 0000 0000 000000
2017-01-18 04:57:23,0.09,1.20,0.00,18.27,22.76,26.23,14.98,49.51,1026.44,2046.95,3137.01,2820.41,3175.72,599.85,611.34,32.33,0000 0000 0000 0000 000000
2017-01-18 05:02:24,0.07,1.21,0.00,18.26,22.72,26.15,15.05,49.47,1026.71,2046.98,3135.84,2819.53,3174.69,600.31,611.99,32.38,0000 0000 0000 0000 000000
2017-01-18 05:07:26,0.06,1.21,0.00,18.26,22.69,26.14,14.91,49.60,1026.67,2046.99,3134.81,2818.69,3173.65,599.94,611.62,32.43,0000 0000 0000 0000 000000
2017-01-18 05:12:27,0.05,1.21,0.00,18.25,22.66,26.09,14.97,50.08,1026.08,2046.99,3133.85,2817.84,3172.58,599.85,611.31,32.48,0000 0000 0000 0000 000000
2017-01-18 05:17:28,0.06,1.22,0.00,18.21,22.64,26.04,14.97,50.22,1025.80,2046.99,3132.72,2816.91,3171.47,600.24,611.50,32.53,0000 0000 0000 0000 000000
2017-01-18 05:22:30,0.06,1.22,0.00,18.20,22.61,26.07,14.88,49.78,1025.89,2046.99,3131.46,2816.00,3170.28,599.78,611.18,32.58,0000 0000 0000 0000 000000
2017-01-18 05:27:31,0.06,1.23,0.00,18.20,22.58,26.02,14.96,49.73,1026.23,2046.99,3130.02,2815.10,3169.18,599.97,611.51,32.63,0000 0000 0000 0000 000000
2017-01-18 05:32:32,0.07,1.23,0.00,18.20,22.55,26.00,14.96,49.36,1026.44,2047.00,3128.71,2814.23,3168.18,600.07,611.77,32.68,0000 0000 0000 0000 000000
2017-01-18 05:37:34,0.07,1.23,0.00,18.19,22.53,26.01,14.91,49.23,1026.57,2047.00,3127.30,2813.21,3167.09,599.88,611.67,32.73,0000 0000 0000 0000 000000
2017-01-18 05:42:35,0.08,1.24,0.00,18.18,22.51,25.93,14.91,49.33,1026.81,2047.05,3125.87,2812.21,3165.91,599.83,611.72,32.78,0000 0000 0000 0000 000000
2017-01-18 05:47:36,0.09,1.24,0.00,18.22,22.48,25.92,14.96,49.49,1026.85,2047.19,3124.58,2811.23,3164.72,600.27,612.15,32.84,0000 0000 0000 0000 000000
2017-01-18 05:52:37,0.11,1.25,0.00,18.23,22.47,25.86,14.94,49.38,1026.72,2047.68,3123.41,2810.30,3163.61,600.07,611.89,32.89,0000 0000 0000 0000 000000
2017-01-18 05:57:39,0.09,1.25,0.00,18.24,22.45,25.86,15.00,49.36,1026.85,2047.77,3122.02,2809.23,3162.39,600.19,612.05,32.94,0000 0000 0000 0000 000000
2017-01-18 06:02:40,0.07,1.25,0.00,18.27,22.44,25.81,14.93,49.53,1026.84,2047.88,3120.76,2808.28,3161.25,599.74,611.52,32.99,0000 0000 0000 0000 000000
2017-01-18 06:07:41,0.07,1.26,0.00,18.29,22.42,25.72,14.95,49.59,1026.56,2047.94,3119.49,2807.28,3159.99,599.89,611.35,33.04,0000 0000 0000 0000 000000
2017-01-18 06:12:43,0.07,1.26,0.00,18.31,22.42,25.68,14.94,49.53,1026.40,2047.96,3118.17,2806.25,3158.86,600.11,611.53,33.09,0000 0000 0000 0000 000000
2017-01-18 06:17:44,0.07,1.27,0.00,18.34,22.41,25.70,14.88,49.43,1026.38,2047.97,3116.86,2805.31,3157.70,599.43,610.99,33.14,0000 0000 0000 0000 000000
2017-01-18 06:22:46,0.08,1.27,0.00,18.35,22.40,25.68,14.98,49.62,1026.38,2047.98,3115.54,2804.28,3156.59,600.30,611.70,33.19,0000 0000 0000 0000 000000
2017-01-18 06:27:47,0.06,1.27,0.00,18.36,22.39,25.78,14.87,49.43,1026.36,2047.98,3114.26,2803.26,3155.35,599.83,611.13,33.24,0000 0000 0000 0000 000000
2017-01-18 06:32:48,0.07,1.28,0.00,18.37,22.39,25.87,14.96,49.20,1026.38,2047.99,3112.89,2802.27,3154.20,600.07,611.40,33.29,0000 0000 0000 0000 000000
2017-01-18 06:37:50,0.07,1.28,0.00,18.41,22.39,25.92,14.94,49.16,1026.38,2047.99,3111.69,2801.36,3153.09,600.08,611.38,33.34,0000 0000 0000 0000 000000
2017-01-18 06:42:52,0.07,1.28,0.00,18.41,22.39,25.81,14.98,49.18,1026.38,2047.99,3110.34,2800.34,3151.89,600.20,611.38,33.39,0000 0000 0000 0000 000000
2017-01-18 06:47:53,0.07,1.29,0.00,18.42,22.39,25.88,14.91,49.29,1026.38,2047.99,3108.94,2799.37,3150.66,599.63,610.84,33.44,0000 0000 0000 0000 000000
2017-01-18 06:52:54,0.07,1.29,0.00,18.44,22.39,25.94,14.93,49.21,1026.35,2047.99,3107.74,2798.29,3149.48,600.34,611.52,33.49,0000 0000 0000 0000 000000
2017-01-18 06:57:56,0.07,1.30,0.00,18.45,22.39,25.98,14.92,48.99,1026.09,2047.99,3106.29,2797.23,3148.30,600.03,610.90,33.54,0000 0000 0000 0000 000000
2017-01-18 07:02:57,0.06,1.30,0.00,18.46,22.40,25.98,14.93,48.95,1025.95,2047.99,3104.99,2796.21,3147.09,600.38,611.20,33.59,0000 0000 0000 0000 000000
2017-01-18 07:07:58,0.08,1.30,0.00,18.48,22.42,26.02,15.00,49.16,1026.03,2047.98,3103.52,2795.17,3145.83,600.05,610.93,33.64,0000 0000 0000 0000 000000
2017-01-18 07:12:59,0.07,1.31,0.00,18.52,22.42,26.04,14.91,49.16,1025.92,2047.98,3102.23,2794.15,3144.67,599.81,610.60,33.69,0000 0000 0000 0000 000000
2017-01-18 07:18:01,0.07,1.31,0.00,18.52,22.42,26.06,14.91,49.07,1026.16,2047.98,3100.84,2793.11,3143.45,600.13,610.84,33.74,0000 0000 0000 0000 000000
2017-01-18 07:23:02,0.07,1.32,0.00,18.52,22.44,26.07,14.86,49.07,1026.37,2047.97,3099.50,2792.02,3142.17,599.65,610.59,33.80,0000 0000 0000 0000 000000
2017-01-18 07:28:03,0.08,1.32,0.00,18.54,22.44,26.08,14.99,49.26,1026.07,2047.96,3098.05,2790.93,3140.83,600.53,611.31,33.85,0000 0000 0000 0000 000000
2017-01-18 07:33:04,0.08,1.32,0.00,18.57,22.46,26.09,14.91,49.33,1026.18,2047.97,3096.59,2789.78,3139.51,600.10,610.99,33.90,0000 0000 0000 0000 000000
2017-01-18 07:38:06,0.06,1.33,0.00,18.58,22.47,26.14,14.88,49.23,1026.07,2047.96,3095.33,2788.82,3138.34,600.24,610.98,33.95,0000 0000 0000 0000 000000
2017-01-18 07:43:07,0.05,1.33,0.00,18.61,22.48,26.11,14.93,49.15,1026.02,2047.77,3093.94,2787.74,3137.05,600.29,610.89,34.00,0000 0000 0000 0000 000000
2017-01-18 07:48:08,0.08,1.33,0.00,18.63,22.49,26.15,14.88,49.10,1025.92,2047.54,3092.47,2786.66,3135.82,599.68,610.17,34.05,0000 0000 0000 0000 000000
2017-01-18 07:53:10,0.06,1.34,0.00,18.65,22.50,26.18,14.90,49.23,1025.91,2047.52,3091.10,2785.58,3134.71,599.84,610.28,34.10,0000 0000 0000 0000 000000
2017-01-18 07:58:11,0.05,1.34,0.00,18.69,22.52,26.17,14.88,49.17,1025.90,2047.20,3089.73,2784.53,3133.49,599.97,610.35,34.15,0000 0000 0000 0000 000000
2017-01-18 08:03:12,0.06,1.34,0.00,18.70,22.53,26.18,14.93,49.00,1025.93,2047.11,3088.34,2783.45,3132.21,600.18,610.51,34.20,0000 0000 0000 0000 000000
2017-01-18 08:08:13,0.08,1.35,0.00,18.70,22.54,26.19,14.89,48.94,1026.26,2047.08,3086.77,2782.25,3130.83,599.94,610.56,34.25,0000 0000 0000 0000 000000
2017-01-18 08:13:14,0.08,1.35,0.00,18.70,22.56,26.22,14.87,49.23,1026.03,2047.03,3085.22,2780.98,3129.46,599.89,610.29,34.30,0000 0000 0000 0000 000000
2017-01-18 08:18:16,0.09,1.36,0.00,18.73,22.58,26.18,14.88,49.30,1026.36,2047.00,3083.64,2779.78,3127.92,600.00,610.58,34.35,0000 0000 0000 0000 000000
2017-01-18 08:23:17,0.08,1.36,0.00,18.75,22.59,26.26,14.92,49.13,1026.38,2047.00,3082.19,2778.62,3126.57,599.81,610.29,34.40,0000 0000 0000 0000 000000
2017-01-18 08:28:18,0.08,1.37,0.00,18.78,22.61,26.25,14.85,49.22,1026.38,2047.00,3080.73,2777.52,3125.28,599.90,610.35,34.45,0000 0000 0000 0000 000000
2017-01-18 08:33:19,0.07,1.37,0.00,18.80,22.62,26.31,14.94,49.19,1026.37,2047.00,3079.41,2776.45,3123.92,600.05,610.50,34.50,0000 0000 0000 0000 000000
2017-01-18 08:38:21,0.08,1.37,0.00,18.82,22.64,26.32,14.86,49.21,1026.33,2047.00,3077.83,2775.33,3122.61,599.95,610.30,34.55,0000 0000 0000 0000 000000
2017-01-18 08:43:22,0.07,1.38,0.00,18.84,22.66,26.30,14.93,49.21,1026.18,2047.00,3076.45,2774.12,3121.36,600.14,610.26,34.60,0000 0000 0000 0000 000000
2017-01-18 08:48:23,0.11,1.38,0.00,18.84,22.67,26.34,14.90,49.21,1026.26,2047.00,3074.81,2772.75,3119.73,599.98,610.28,34.65,0000 0000 0000 0000 000000
2017-01-18 08:53:25,0.08,1.39,0.00,18.89,22.69,26.36,14.89,49.22,1026.26,2047.00,3073.26,2771.49,3118.24,599.96,610.15,34.71,0000 0000 0000 0000 000000
2017-01-18 08:58:26,0.09,1.39,0.00,18.89,22.71,26.41,14.91,49.35,1025.99,2047.00,3071.66,2770.29,3116.78,600.01,610.08,34.76,0000 0000 0000 0000 000000
2017-01-18 09:03:27,0.09,1.40,0.00,18.91,22.73,26.44,14.89,49.31,1025.92,2046.98,3070.08,2768.89,3115.32,600.00,609.99,34.81,0000 0000 0000 0000 000000
2017-01-18 09:08:28,0.09,1.40,0.00,18.92,22.74,26.46,14.84,49.14,1025.95,2046.98,3068.54,2767.75,3113.82,600.06,609.99,34.86,0000 0000 0000 0000 000000
2017-01-18 09:13:29,0.09,1.41,0.00,18.94,22.77,26.45,14.90,49.38,1025.90,2046.98,3066.88,2766.48,3112.43,600.15,609.99,34.91,0000 0000 0000 0000 000000
2017-01-18 09:18:30,0.08,1.41,0.00,18.94,22.78,26.46,14.89,49.40,1025.88,2046.96,3065.33,2765.34,3111.00,600.06,609.83,34.96,0000 0000 0000 0000 000000
2017-01-18 09:23:31,0.07,1.42,0.00,18.94,22.80,26.47,14.98,49.32,1025.87,2046.82,3063.66,2764.00,3109.62,600.27,610.14,35.01,0000 0000 0000 0000 000000
2017-01-18 09:28:33,0.05,1.42,0.00,18.95,22.82,26.51,14.85,49.33,1025.90,2046.38,3061.99,2762.69,3108.02,600.08,609.87,35.06,0000 0000 0000 0000 000000
2017-01-18 09:33:34,0.07,1.42,0.00,18.97,22.83,26.55,14.96,49.25,1026.19,2046.10,3060.45,2761.52,3106.58,599.98,609.88,35.11,0000 0000 0000 0000 000000
2017-01-18 09:38:35,0.07,1.43,0.00,18.99,22.85,26.56,14.90,49.23,1026.37,2046.05,3058.98,2760.39,3105.25,600.22,610.13,35.16,0000 0000 0000 0000 000000
2017-01-18 09:43:37,0.08,1.43,0.00,18.99,22.87,26.59,14.83,48.97,1026.31,2046.03,3057.48,2759.24,3103.79,599.72,609.78,35.21,0000 0000 0000 0000 000000
2017-01-18 09:48:38,0.07,1.43,0.00,18.99,22.88,26.56,14.88,49.02,1026.39,2046.01,3056.03,2758.07,3102.48,599.88,609.96,35.26,0000 0000 0000 0000 000000
2017-01-18 09:53:39,0.09,1.44,0.00,18.99,22.89,26.58,14.95,49.07,1026.39,2046.00,3054.49,2756.86,3101.01,600.02,609.99,35.31,0000 0000 0000 0000 000000
2017-01-18 09:58:41,0.09,1.44,0.00,19.00,22.91,26.63,14.92,48.99,1026.46,2046.00,3052.90,2755.67,3099.61,600.01,610.04,35.36,0000 0000 0000 0000 000000
2017-01-18 10:03:42,0.08,1.45,0.00,19.02,22.92,26.60,14.88,49.08,1026.44,2046.00,3051.39,2754.51,3098.33,599.80,609.84,35.41,0000 0000 0000 0000 000000
2017-01-18 10:08:43,0.07,1.45,0.00,19.03,22.94,26.62,14.90,49.12,1026.38,2046.00,3050.07,2753.49,3097.05,600.04,610.01,35.46,0000 0000 0000 0000 000000
2017-01-18 10:13:45,0.08,1.46,0.00,19.03,22.94,26.63,14.87,49.06,1026.38,2045.99,3048.50,2752.35,3095.73,600.08,609.94,35.51,0000 0000 0000 0000 000000
2017-01-18 10:18:46,0.08,1.46,0.00,19.03,22.96,26.66,14.97,49.02,1026.45,2045.99,3047.04,2751.30,3094.43,600.12,609.97,35.56,0000 0000 0000 0000 000000
2017-01-18 10:23:47,0.08,1.46,0.00,19.04,22.97,26.68,14.90,48.91,1026.62,2045.98,3045.52,2750.30,3093.07,600.14,610.22,35.61,0000 0000 0000 0000 000000
2017-01-18 10:28:48,0.08,1.47,0.00,19.06,22.99,26.70,14.91,49.02,1026.46,2045.98,3043.98,2749.11,3091.71,600.24,610.15,35.67,0000 0000 0000 0000 000000
2017-01-18 10:33:50,0.08,1.47,0.00,19.07,22.99,26.69,14.92,49.03,1026.51,2045.97,3042.50,2747.97,3090.43,599.88,609.81,35.72,0000 0000 0000 0000 000000
2017-01-18 10:38:51,0.07,1.48,0.00,19.10,23.01,26.71,14.88,49.03,1026.39,2045.85,3040.96,2746.83,3089.00,600.01,609.77,35.77,0000 0000 0000 0000 000000
2017-01-18 10:43:52,0.08,1.48,0.00,19.11,23.02,26.72,14.91,49.04,1026.50,2045.76,3039.66,2745.78,3087.75,600.07,609.88,35.82,0000 0000 0000 0000 000000
2017-01-18 10:48:53,0.06,1.48,0.00,19.13,23.04,26.72,14.97,49.03,1026.53,2045.59,3038.03,2744.63,3086.49,600.23,610.06,35.87,0000 0000 0000 0000 000000
2017-01-18 10:53:55,0.06,1.49,0.00,19.14,23.04,26.73,14.95,48.98,1026.39,2045.27,3036.52,2743.49,3085.02,600.03,609.68,35.92,0000 0000 0000 0000 000000
2017-01-18 10:58:56,0.07,1.49,0.00,19.17,23.07,26.75,14.83,48.96,1026.38,2045.05,3034.85,2742.21,3083.58,599.92,609.59,35.97,0000 0000 0000 0000 000000
2017-01-18 11:03:57,0.07,1.50,0.00,19.18,23.08,26.77,14.86,49.08,1026.38,2045.01,3033.38,2741.00,3082.24,599.73,609.36,36.02,0000 0000 0000 0000 000000
2017-01-18 11:08:58,0.10,1.50,0.00,19.18,23.09,26.78,14.91,49.14,1026.38,2045.02,3031.76,2739.74,3080.81,600.17,609.78,36.07,0000 0000 0000 0000 000000
2017-01-18 11:14:00,0.09,1.51,0.00,19.20,23.11,26.78,14.90,49.03,1026.38,2045.01,3030.05,2738.46,3079.38,599.96,609.61,36.12,0000 0000 0000 0000 000000
2017-01-18 11:19:01,0.08,1.51,0.00,19.21,23.12,26.82,14.88,48.96,1026.38,2045.01,3028.47,2737.31,3077.90,599.79,609.29,36.17,0000 0000 0000 0000 000000
2017-01-18 11:24:02,0.08,1.51,0.00,19.22,23.13,26.80,14.92,48.96,1026.38,2045.00,3027.00,2736.16,3076.54,599.99,609.41,36.22,0000 0000 0000 0000 000000
2017-01-18 11:29:04,0.08,1.52,0.00,19.24,23.14,26.82,14.84,49.08,1026.38,2045.00,3025.56,2735.01,3075.24,599.61,609.11,36.27,0000 0000 0000 0000 000000
2017-01-18 11:34:05,0.08,1.52,0.00,19.24,23.16,26.85,14.89,49.23,1026.21,2045.00,3024.13,2733.87,3073.90,599.84,609.24,36.32,0000 0000 0000 0000 000000
2017-01-18 11:39:06,0.09,1.53,0.00,19.26,23.17,26.86,14.91,49.15,1025.92,2044.99,3022.66,2732.80,3072.61,600.20,609.34,36.37,0000 0000 0000 0000 000000
2017-01-18 11:44:08,0.07,1.53,0.00,19.26,23.19,26.88,14.87,49.25,1025.75,2044.99,3021.36,2731.77,3071.46,599.99,609.17,36.42,0000 0000 0000 0000 000000
2017-01-18 11:49:09,0.08,1.54,0.00,19.28,23.20,26.89,14.93,49.34,1025.54,2044.98,3019.78,2730.68,3070.34,600.04,608.96,36.48,0000 0000 0000 0000 000000
2017-01-18 11:54:10,0.10,1.54,0.00,19.30,23.22,26.90,14.90,49.31,1025.85,2044.99,3018.12,2729.38,3068.81,600.02,609.07,36.53,0000 0000 0000 0000 000000
2017-01-18 11:59:11,0.08,1.54,0.00,19.31,23.23,26.93,14.89,49.16,1025.87,2044.97,3016.72,2728.20,3067.43,600.12,609.14,36.58,0000 0000 0000 0000 000000
2017-01-18 12:04:13,0.07,1.55,0.00,19.32,23.24,26.94,14.91,49.15,1025.88,2044.91,3015.43,2727.19,3066.13,600.04,609.04,36.63,0000 0000 0000 0000 000000
2017-01-18 12:09:14,0.04,1.55,0.00,19.33,23.26,26.94,14.91,49.17,1025.75,2044.58,3013.94,2726.11,3064.86,599.91,608.83,36.68,0000 0000 0000 0000 000000
2017-01-18 12:14:15,0.05,1.55,0.00,19.32,23.27,26.98,14.90,49.41,1025.44,2044.26,3012.55,2725.02,3063.67,600.07,608.81,36.73,0000 0000 0000 0000 000000
2017-01-18 12:19:16,0.06,1.56,0.00,19.31,23.29,26.99,14.96,49.47,1025.41,2044.12,3011.16,2723.96,3062.35,599.98,608.64,36.78,0000 0000 0000 0000 000000
2017-01-18 12:24:17,0.09,1.56,0.00,19.31,23.30,26.99,14.89,49.65,1025.14,2044.08,3009.67,2722.91,3060.95,599.90,608.59,36.83,0000 0000 0000 0000 000000
2017-01-18 12:29:19,0.07,1.57,0.00,19.30,23.31,27.01,14.89,49.45,1025.33,2044.05,3008.41,2721.84,3059.71,600.20,608.92,36.88,0000 0000 0000 0000 000000
2017-01-18 12:34:20,0.09,1.57,0.00,19.28,23.32,27.02,14.87,49.33,1025.32,2044.01,3006.92,2720.65,3058.27,599.98,608.78,36.93,0000 0000 0000 0000 000000
2017-01-18 12:39:21,0.09,1.57,0.00,19.27,23.32,27.00,14.97,49.38,1025.55,2044.00,3005.49,2719.38,3056.80,600.53,609.48,36.98,0000 0000 0000 0000 000000
2017-01-18 12:44:23,0.08,1.58,0.00,19.27,23.32,26.94,14.83,49.27,1025.43,2044.02,3003.89,2718.23,3055.65,599.89,608.80,37.03,0000 0000 0000 0000 000000
2017-01-18 12:49:24,0.07,1.58,0.00,19.25,23.33,26.87,14.93,49.47,1025.41,2044.01,3002.49,2717.12,3054.31,600.09,608.99,37.08,0000 0000 0000 0000 000000
2017-01-18 12:54:25,0.08,1.59,0.00,19.25,23.34,26.92,14.89,49.48,1025.51,2044.00,3001.04,2716.05,3053.01,599.94,608.98,37.13,0000 0000 0000 0000 000000